Montpelier, VT

11:42 AM EDT on April 20, 2018 (GMT -0400)
Knapp State

Weather History for KMPV - February, 2013

Change the Weather History Date:

Friday, February 22, 2013

  Actual Average Record
Temperature  
Mean Temperature 24 °F 22 °F  
Max Temperature 31 °F 32 °F 61 °F (1997)
Min Temperature 16 °F 11 °F -11 °F (1963)
Degree Days  
Heating Degree Days 41 43  
Month to date heating degree days 1001 1007  
Since 1 July heating degree days 5346 5652  
Cooling Degree Days 0 0  
Month to date cooling degree days 0  
Year to date cooling degree days 0  
Moisture  
Dew Point 18 °F    
Average Humidity 75    
Maximum Humidity 92    
Minimum Humidity 58    
Precipitation  
Precipitation 0.00 in 0.07 in 1.79 in (1974)
Month to date precipitation 0.73 1.61  
Year to date precipitation 1.68 4.06  
Sea Level Pressure  
Sea Level Pressure 30.38 in    
Wind  
Wind Speed 2 mph (ESE)    
Max Wind Speed 12 mph    
Max Gust Speed 16 mph    
Visibility 10 miles    
Events      
T = Trace of Precipitation, MM = Missing Value Source: NWS Daily Summary

Daily Weather History Graph

Daily Weather History Graph

Search for Another Location

Airport or City:

Astronomy

Feb. 22, 2013 Rise Set
Actual Time 6:38 AM EST 5:29 PM EST
Civil Twilight 6:09 AM EST 5:58 PM EST
Nautical Twilight 5:35 AM EST 6:32 PM EST
Astronomical Twilight 5:02 AM EST 7:05 PM EST
Moon 2:33 PM EST (2/22) 4:26 AM EST (2/22)
Length of Visible Light 11h 49m
Length of Day
10h 50m
Waxing Gibbous, 90% of the Moon is Illuminated
Feb 22
Waxing Gibbous
Feb 25
Full
Mar 4
Last Quarter
Mar 11
New
Mar 19
First Quarter

Hourly Weather History & Observations

Time (EST) Temp. Windchill Dew Point Humidity Pressure Visibility Wind Dir Wind Speed Gust Speed Precip Events Conditions
12:51 AM 19.9 °F 10.1 °F 17.1 °F 89% 30.42 in 10.0 mi NW 8.1 mph - N/A   Overcast
1:51 AM 19.9 °F 10.1 °F 17.1 °F 89% 30.40 in 10.0 mi NNW 8.1 mph - N/A   Overcast
2:51 AM 19.9 °F 14.9 °F 17.1 °F 89% 30.40 in 10.0 mi North 3.5 mph - N/A   Overcast
3:51 AM 19.9 °F - 17.1 °F 89% 30.40 in 10.0 mi Calm Calm - N/A   Overcast
4:51 AM 19.9 °F - 17.1 °F 89% 30.40 in 10.0 mi Calm Calm - N/A   Overcast
5:51 AM 19.0 °F - 17.1 °F 92% 30.42 in 10.0 mi Calm Calm - N/A   Overcast
6:08 AM 19.4 °F - 17.6 °F 93% 30.36 in 10.0 mi Calm Calm - N/A   Overcast
6:51 AM 18.0 °F - 16.0 °F 92% 30.45 in 10.0 mi Calm Calm - N/A   Mostly Cloudy
7:51 AM 21.2 °F - 17.6 °F 86% 30.41 in 10.0 mi Calm Calm - N/A   Mostly Cloudy
7:59 AM 19.4 °F 14.3 °F 15.8 °F 86% 30.41 in 7.0 mi ENE 3.5 mph - N/A   Mostly Cloudy
8:19 AM 21.2 °F - 17.6 °F 86% 30.41 in 10.0 mi Calm Calm - N/A   Mostly Cloudy
8:51 AM 21.9 °F - 18.0 °F 85% 30.47 in 10.0 mi Calm Calm - N/A   Overcast
9:51 AM 24.1 °F - 19.0 °F 81% 30.46 in 10.0 mi Calm Calm - N/A   Overcast
10:51 AM 26.6 °F - 19.4 °F 74% 30.39 in 10.0 mi Calm Calm - N/A   Overcast
11:51 AM 27.0 °F - 19.0 °F 72% 30.44 in 10.0 mi Calm Calm - N/A   Overcast
12:51 PM 28.0 °F - 19.9 °F 72% 30.41 in 10.0 mi Calm Calm - N/A   Overcast
1:51 PM 30.0 °F - 18.0 °F 61% 30.38 in 10.0 mi Calm Calm - N/A   Mostly Cloudy
2:05 PM 30.2 °F 26.7 °F 17.6 °F 60% 30.31 in 10.0 mi SE 3.5 mph - N/A   Scattered Clouds
2:51 PM 30.0 °F - 18.0 °F 61% 30.38 in 10.0 mi Calm Calm - N/A   Clear
3:51 PM 30.0 °F - 19.0 °F 64% 30.35 in 10.0 mi Calm Calm - N/A   Clear
4:51 PM 30.0 °F - 19.0 °F 64% 30.34 in 10.0 mi Calm Calm - N/A   Clear
5:51 PM 25.0 °F - 18.0 °F 75% 30.34 in 10.0 mi Calm Calm - N/A   Clear
6:51 PM 26.1 °F - 19.0 °F 75% 30.36 in 10.0 mi Calm Calm - N/A   Clear
7:51 PM 26.1 °F - 19.9 °F 78% 30.34 in 10.0 mi Calm Calm - N/A   Clear
8:51 PM 25.0 °F 20.7 °F 19.9 °F 81% 30.33 in 10.0 mi SE 3.5 mph - N/A   Clear
9:51 PM 25.0 °F - 19.9 °F 81% 30.32 in 10.0 mi Calm Calm - N/A   Overcast
10:51 PM 28.9 °F 21.9 °F 19.0 °F 67% 30.31 in 10.0 mi South 6.9 mph - N/A   Overcast
11:51 PM 28.9 °F 21.9 °F 19.0 °F 67% 30.30 in 10.0 mi SSE 6.9 mph - N/A   Overcast